Starlink 11198

operational
NORAD ID: 60114 Int'l Des: 2024-118 Owner: SPXS Country: US Constellation: starlink
LEOCIRCULAR

About Starlink 11198

Description loading...

Live Position

Loading 3D Globe...

Upcoming Passes

Altitude History

Altitude vs Time

uPlot chart will show altitude changes over time

Two-Line Element Set

1 60114U 24118B 26048.14895993 .00001744 00000-0 19252-4 0 9995
2 60114 53.1585 322.7784 0001171 101.8225 258.2925 15.69704878 94767
Epoch: Feb 17, 2026 • Age: 27 hours

Current Status

Altitude 359.5 km
Velocity 7.70 km/s
Sub-Earth Point 17.38°N, 117.75°W
Launch Date Jun 24, 2024
Age 1.6 years
Type internet

Technical Details

Classification Payload
Mass 960.00 kg
Dry Mass 910.00 kg
Total Mass 960.00 kg
Length 0.30 m
Diameter 4.10 m
Span 29.00 m
Shape Box + pan
Manufacturer SPXS
Bus Type Starlink V2MD
Phase Status In Orbit
Owner/State SPXS/US

Large Constellations

Loading constellations...